Notices

What's New in latest Release from April 7th, 2021:

- Updated Glossary, including Speed of Maximum Gust, and Total Hourly Precipitation

- Updated national and regional climate services offices contacts and prices information

- Addition of station inventory lists for 1981-2010, 1971-2000, and 1961-1990 Normals.

If you haven't already, please take our survey and provide feedback about our website: https://eccc.sondage-survey.ca/f/LanguageSelection.aspx?s=442ca660-fcf1-47c0-95a9-59707d6fd709

Hourly Data Report for December 30, 2019

SAINT JOHN A
NEW BRUNSWICK
Current Station Operator: NAVCAN

45°18'58.000" N
65°53'24.000" W
108.80 m
8104901
71609
YSJ

Download Data

Hourly Data (December 2019)
Hourly Data Report for December 30, 2019
TIME
LST
Temp Definition
°C
Dew Point Definition
°C
Rel Hum Definition
%
Precip. Amount Definition
mm

Wind Dir Definition
10's deg

Wind Spd Definition
km/h
Visibility Definition
km
Stn Press Definition
kPa
Hmdx Definition


Wind Chill Definition


Weather Definition


00:00 -5.1 -10.2 68   34 20 24.1 100.64   -12 LegendNANA
01:00 -5.6 -10.2 70   34 14 24.1 100.64   -11 LegendNANA
02:00 -6.3 -10.4 73   33 11 24.1 100.65   -11 Mainly Clear
03:00 -6.5 -10.3 75   35 18 24.1 100.71   -13 LegendNANA
04:00 -7.0 -10.6 76   35 21 24.1 100.74   -14 LegendNANA
05:00 -7.3 -10.8 77   35 19 24.1 100.81   -14 Mainly Clear
06:00 -7.2 -10.8 76   1 14 24.1 100.88   -13 LegendNANA
07:00 -7.3 -10.8 76   1 12 24.1 100.95   -13 LegendNANA
08:00 -6.8 -10.6 74   3 17 24.1 101.00   -13 Mostly Cloudy
09:00 -6.4 -10.2 74   3 16 24.1 101.06   -13 LegendNANA
10:00 -5.5 -9.6 73   4 11 24.1 101.13   -10 LegendNANA
11:00 -4.2 -9.0 69   4 12 24.1 101.11   -9 Mostly Cloudy
12:00 -2.8 -8.4 65   3 28 24.1 100.96   -10 LegendNANA
13:00 -3.1 -8.0 69   3 22 24.1 100.94   -9 LegendNANA
14:00 -2.8 -7.4 71   3 21 24.1 100.87   -9 Cloudy
15:00 -2.6 -7.4 70   5 21 24.1 100.91   -9 LegendNANA
16:00 -2.8 -7.0 73   1 14 24.1 100.97   -8 LegendNANA
17:00 -2.8 -6.8 74   2 13 24.1 101.00   -7 Cloudy
18:00 -3.2 -6.0 81   3 18 24.1 100.98   -9 LegendNANA
19:00 -3.6 -5.7 85   4 16 24.1 100.98   -9 LegendNANA
20:00 -2.9 -5.2 84   4 12 24.1 100.99   -7 Cloudy
21:00 -2.3 -5.2 81   5 16 24.1 100.91   -7 LegendNANA
22:00 -1.6 -5.2 76   7 20 24.1 100.80   -7 LegendNANA
23:00 -1.5 -5.9 72   8 25 24.1 100.74   -8 Cloudy

Notes on Data Quality.

Legend

  • E = Estimated
  • M = Missing
  • NA = Not Available*
  • [empty] = Indicates an unobserved value
Date modified: